Weather History for Barksdale AFB, LA

Change the Weather History Date:

Sunday, October 7, 2012

  Actual Average Record
Temperature  
Mean Temperature 53 °F -  
Max Temperature 60 °F 75 °F 91 °F (2007)
Min Temperature 46 °F 55 °F 45 °F (2010)
Degree Days  
Heating Degree Days 12    
Growing Degree Days 3 (Base 50)    
Moisture  
Dew Point 42 °F    
Average Humidity 68    
Maximum Humidity 82    
Minimum Humidity 47    
Precipitation  
Precipitation 0.00 in - - ()
Sea Level Pressure  
Sea Level Pressure 30.23 in    
Wind  
Wind Speed 8 mph (NNE)    
Max Wind Speed 12 mph    
Max Gust Speed 17 mph    
Visibility 10 miles    
Events Rain    
Averages and records for this station are not official NWS values.
T = Trace of Precipitation, MM = Missing Value Source: NWS Daily Summary

Daily Weather History Graph

Daily Weather History Graph

Search for Another Location

Airport:

Trip Planner

Search our weather history database for the weather conditions in past years. The results will help you decide how hot, cold, wet, or windy it might be!

Date:

Astronomy

Oct. 07, 2012 Rise Set
Actual Time 7:13 AM CDT 6:50 PM CDT
Civil Twilight 6:48 AM CDT 7:15 PM CDT
Nautical Twilight 6:20 AM CDT 7:43 PM CDT
Astronomical Twilight 5:51 AM CDT 8:12 PM CDT
Moon No Moon Rise 1:37 PM CDT (10/7)
Length of Visible Light 12h 27m
Length of Day
11h 37m
Waning Gibbous, 56% of the Moon is Illuminated
Oct 7
Waning Gibbous
Oct 8
Last Quarter
Oct 15
New
Oct 21
First Quarter
Oct 29
Full

Hourly Weather History & Observations

Time (CDT) Temp. Dew Point Humidity Pressure Visibility Wind Dir Wind Speed Gust Speed Precip Events Conditions
12:47 AM 48.2 °F 41.0 °F 76% 30.22 in 10.0 mi NNE 9.2 mph - N/A   Overcast
12:55 AM 48.4 °F 40.6 °F 75% 30.22 in 10.0 mi NNE 6.9 mph - N/A   Overcast
1:28 AM 48.2 °F 41.0 °F 76% 30.22 in 10.0 mi North 8.1 mph - N/A   Overcast
1:55 AM 48.2 °F 41.0 °F 76% 30.22 in 10.0 mi NNE 6.9 mph - N/A   Overcast
2:55 AM 48.2 °F 40.3 °F 74% 30.22 in 10.0 mi NNE 6.9 mph - N/A   Overcast
3:55 AM 47.8 °F 39.6 °F 73% 30.22 in 10.0 mi NNE 9.2 mph - N/A   Overcast
4:55 AM 46.9 °F 39.2 °F 74% 30.22 in 10.0 mi NNE 9.2 mph - N/A   Mostly Cloudy
5:55 AM 46.9 °F 38.8 °F 73% 30.24 in 10.0 mi NNE 6.9 mph - N/A   Overcast
6:55 AM 46.9 °F 39.0 °F 74% 30.26 in 10.0 mi NNE 5.8 mph - N/A   Overcast
7:55 AM 47.1 °F 39.9 °F 76% 30.27 in 10.0 mi NNE 6.9 mph - N/A   Overcast
8:55 AM 48.6 °F 40.8 °F 75% 30.28 in 10.0 mi NE 10.4 mph - N/A   Mostly Cloudy
9:55 AM 49.8 °F 40.5 °F 70% 30.30 in 10.0 mi NE 6.9 mph - N/A   Overcast
10:55 AM 52.3 °F 40.6 °F 64% 30.28 in 10.0 mi ENE 5.8 mph - N/A   Overcast
11:36 AM 55.4 °F 41.0 °F 58% 30.28 in 10.0 mi NNE 9.2 mph - N/A   Mostly Cloudy
11:55 AM 55.2 °F 40.5 °F 58% 30.27 in 10.0 mi ENE 9.2 mph - N/A   Mostly Cloudy
12:08 PM 55.4 °F 41.0 °F 58% 30.27 in 10.0 mi ENE 9.2 mph 17.3 mph N/A   Mostly Cloudy
12:09 PM 55.4 °F 41.0 °F 58% 30.27 in 10.0 mi ENE 8.1 mph 17.3 mph N/A   Mostly Cloudy
12:11 PM 55.4 °F 41.0 °F 58% 30.26 in 10.0 mi NE 6.9 mph 17.3 mph N/A   Mostly Cloudy
12:55 PM 57.9 °F 40.8 °F 53% 30.24 in 10.0 mi North 8.1 mph - N/A   Mostly Cloudy
1:55 PM 57.4 °F 40.3 °F 53% 30.21 in 10.0 mi ENE 8.1 mph - N/A   Overcast
2:55 PM 60.1 °F 39.6 °F 47% 30.18 in 10.0 mi Variable 4.6 mph - N/A   Overcast
3:55 PM 59.0 °F 40.1 °F 50% 30.18 in 10.0 mi ENE 5.8 mph - N/A   Overcast
4:55 PM 57.7 °F 39.6 °F 51% 30.18 in 10.0 mi Calm Calm - N/A   Overcast
5:55 PM 57.0 °F 42.6 °F 59% 30.16 in 10.0 mi East 3.5 mph - N/A   Overcast
6:55 PM 56.3 °F 43.0 °F 61% 30.17 in 10.0 mi Calm Calm - N/A   Overcast
8:55 PM 55.0 °F 44.2 °F 67% 30.18 in 10.0 mi Calm Calm - N/A   Overcast
9:55 PM 53.8 °F 45.1 °F 73% 30.21 in 10.0 mi North 10.4 mph - N/A   Overcast
10:50 PM 51.8 °F 46.4 °F 82% 30.22 in 10.0 mi North 10.4 mph - N/A   Overcast
10:54 PM 51.8 °F 46.4 °F 82% 30.23 in 10.0 mi North 11.5 mph - N/A   Overcast
10:55 PM 52.0 °F 45.7 °F 79% 30.23 in 9.0 mi North 11.5 mph - N/A   Overcast
11:00 PM 51.8 °F 44.6 °F 76% 30.22 in 7.0 mi North 9.2 mph - N/A Rain Light Rain
11:29 PM 50.0 °F 44.6 °F 82% 30.21 in 10.0 mi NNE 5.8 mph - N/A   Overcast
11:55 PM 50.2 °F 44.8 °F 82% 30.21 in 10.0 mi NNE 4.6 mph - N/A   Overcast